Погода в Старых Каксях

Россия / Удмуртская Республика     56°15′51″N   52°15′32″E
темп.,
°C
ветер,
м/с
пор.,
м/с
влажн.,
%
обл.,
%
осадки,
мм/ч
давл.,
гПа
погр.,
м
15 апреля, чт
чт1501:00+10ю338043 0.0 102427
04:00+8ю228651 0.0 102419
07:00+8ю36895 0.0 1023130
10:00+14ююз46665 0.0 1022342
13:00+17ююз46520 0.0 1021876
16:00+19юз464261 0.0 10201508
19:00+15з22580 0.0 101911
22:00+12сз11621 0.0 101910
16 апреля, пт
пт1601:00+8ссв499017 0.0 1020191
04:00+7св7118999 0.0 1022430
07:00+5св71385100 0.0 1024477
10:00+6всв7107380 0.0 1025516
13:00+10св785472 0.0 1025774
16:00+11св675171 0.0 1025882
19:00+9св596014 0.0 1025312
22:00+5св512611 0.0 1027324
17 апреля, сб
сб1701:00+3св512650 0.0 1027263
04:00+1св411690 0.0 1028217
07:00+2св410660 0.0 1029275
10:00+7св67450 0.0 1029721
13:00+10св56400 0.0 10281177
16:00+10св45390 0.0 10271394
19:00+8ссв22525 0.0 102626
22:00+5с22650 0.0 102724
18 апреля, вс
вс1801:00+3с33705 0.0 102633
04:00+2с33763 0.0 102635
07:00+3ссз26750 0.0 1025167
10:00+8с46541 0.0 1025848
13:00+10ссв664777 0.0 10251789
16:00+8св785784 0.0 10261325
19:00+5всв711443 0.0 1028874
22:00+2св612480 0.0 1030481
19 апреля, пн
пн1901:000св613570 0.0 1031397
04:00−1всв612660 0.0 1033439
07:00−1в611580 0.0 1034622
10:00+2в89350 0.0 10341276
13:00+5в78300 0.0 10341534
16:00+5в67300 0.0 10331620
19:00+3в48400 0.0 1033249
22:000всв39520 0.0 1034165